{"data":{"norad_id":67583,"intl_designator":"2026-016Y","name":"STARLINK-36577","alt_names":[],"object_type":"PAYLOAD","status":"ACTIVE","operator":null,"country":"US","launch_date":"2026-01-25","launch_site_code":"AFWTR","launch_vehicle":null,"mission":null,"orbit_class":"UNKNOWN","rcs_meters":null,"size_class":null,"mass_kg":null,"dimensions":null,"purposes":["comms"],"wikipedia_slug":null,"has_3d_model":false,"image_url":null,"decayed_at":null,"tle_current":{"epoch":"2026-05-25T02:51:31.694976Z","epoch_age_seconds":58149,"freshness":"FRESH","line1":"1 67583U 26016Y   26145.11911684  .00014495  00000+0  45042-3 0  9993","line2":"2 67583  97.2846 205.5498 0001016  86.1415 273.9944 15.33446979 18584","mean_motion":15.33446979,"eccentricity":0.0001016,"inclination_deg":97.2846,"raan_deg":205.5498,"arg_perigee_deg":86.1415,"mean_anomaly_deg":273.9944,"bstar":0.00045042,"rev_number":1858,"period_min":93.90608346557,"perigee_km":464.84196906531,"apogee_km":466.2326036803,"semimajor_km":6843.6742863728,"source":"CELESTRAK","updated_at":"2026-05-25T13:38:21.618082Z"}}}